Beckley, WV

8:15 AM EST on November 15, 2019 (GMT -0500)
Raleigh County Memorial

Weather History for KBKW - October, 2019

Change the Weather History Date:

Wednesday, October 23, 2019

  Actual Average Record
Temperature  
Mean Temperature 48 °F 51 °F  
Max Temperature 57 °F 61 °F 84 °F (1947)
Min Temperature 39 °F 41 °F 13 °F (1913)
Degree Days  
Heating Degree Days 16 14  
Month to date heating degree days 186 253  
Since 1 July heating degree days 196 387  
Cooling Degree Days 0 0  
Month to date cooling degree days 40 2  
Year to date cooling degree days 948 552  
Moisture  
Dew Point 31 °F    
Average Humidity 56    
Maximum Humidity 86    
Minimum Humidity 28    
Precipitation  
Precipitation 0.00 in 0.09 in 1.58 in (2017)
Month to date precipitation 4.76 1.86  
Year to date precipitation 36.58 34.53  
Snow  
Snow 0.00 in 0.10 in 7.50 in (1937)
Month to date snowfall 0.0 0.2  
Since 1 September snowfall 0.0 0.2  
Snow Depth 0.00 in    
Sea Level Pressure  
Sea Level Pressure 30.13 in    
Wind  
Wind Speed 5 mph ()    
Max Wind Speed 17 mph    
Max Gust Speed 23 mph    
Visibility 9.7 miles    
Events      
T = Trace of Precipitation, MM = Missing Value Source: Averaged Metar Reports

Daily Weather History Graph

Daily Weather History Graph

Search for Another Location

Airport or City:

Astronomy

Oct. 23, 2019 Rise Set
Actual Time 7:40 AM EDT 6:36 PM EDT
Civil Twilight 7:13 AM EDT 7:03 PM EDT
Nautical Twilight 6:43 AM EDT 7:33 PM EDT
Astronomical Twilight 6:12 AM EDT 8:04 PM EDT
Moon 2:05 AM EDT (10/23) 4:19 PM EDT (10/23)
Length of Visible Light 11h 49m
Length of Day
10h 56m
Waning Crescent, 27% of the Moon is Illuminated
Oct 23
Waning Crescent
Oct 27
New
Nov 4
First Quarter
Nov 12
Full
Nov 19
Last Quarter

Hourly Weather History & Observations

Time (EDT) Temp. Windchill Dew Point Humidity Pressure Visibility Wind Dir Wind Speed Gust Speed Precip Events Conditions
12:51 AM 48.0 °F - 36.0 °F 63% 29.98 in 10.0 mi WSW 4.6 mph - N/A   Clear
1:51 AM 46.9 °F - 36.0 °F 66% 29.98 in 10.0 mi WSW 4.6 mph - N/A   Scattered Clouds
2:51 AM 44.1 °F 41.5 °F 35.1 °F 71% 29.99 in 10.0 mi WSW 4.6 mph - N/A   Clear
3:51 AM 46.0 °F 42.5 °F 36.0 °F 68% 30.00 in 10.0 mi West 6.9 mph - N/A   Overcast
4:51 AM 46.0 °F 44.8 °F 36.0 °F 68% 30.02 in 10.0 mi West 3.5 mph - N/A   Overcast
5:51 AM 42.1 °F 39.2 °F 35.1 °F 76% 30.06 in 10.0 mi SW 4.6 mph - N/A   Clear
6:51 AM 39.0 °F - 35.1 °F 86% 30.08 in 10.0 mi Calm Calm - N/A   Clear
7:51 AM 41.0 °F 37.1 °F 34.0 °F 76% 30.09 in 10.0 mi SW 5.8 mph - N/A   Clear
8:51 AM 46.0 °F 44.8 °F 35.1 °F 66% 30.11 in 10.0 mi West 3.5 mph - N/A   Clear
9:51 AM 48.0 °F - 37.0 °F 66% 30.13 in 10.0 mi WSW 5.8 mph - N/A   Clear
10:51 AM 50.0 °F - 30.9 °F 48% 30.14 in 10.0 mi NW 11.5 mph 18.4 mph N/A   Clear
11:51 AM 52.0 °F - 28.0 °F 40% 30.16 in 10.0 mi NW 13.8 mph 18.4 mph N/A   Clear
12:51 PM 53.1 °F - 26.1 °F 35% 30.17 in 10.0 mi West 11.5 mph 20.7 mph N/A   Clear
1:51 PM 55.0 °F - 24.1 °F 30% 30.17 in 10.0 mi West 9.2 mph 20.7 mph N/A   Clear
2:51 PM 55.9 °F - 27.0 °F 33% 30.17 in 10.0 mi Variable 6.9 mph 16.1 mph N/A   Clear
3:51 PM 57.0 °F - 28.0 °F 33% 30.15 in 10.0 mi WNW 8.1 mph - N/A   Clear
5:51 PM 55.0 °F - 24.1 °F 30% 30.19 in 10.0 mi NW 8.1 mph - N/A   Clear
6:51 PM 52.0 °F - 26.1 °F 37% 30.22 in 10.0 mi Calm Calm - N/A   Clear
7:51 PM 45.0 °F 43.5 °F 30.0 °F 56% 30.25 in 10.0 mi SSE 3.5 mph - N/A   Clear
8:51 PM 44.1 °F 42.5 °F 30.0 °F 58% 30.25 in 3.0 mi SE 3.5 mph - N/A   Haze
9:51 PM 42.1 °F - 30.9 °F 65% 30.26 in 10.0 mi Calm Calm - N/A   Clear
10:51 PM 43.0 °F - 30.0 °F 60% 30.26 in 10.0 mi Calm Calm - N/A   Clear
11:51 PM 42.1 °F - 28.9 °F 60% 30.26 in 10.0 mi Calm Calm - N/A   Clear